This demonstration page uses our WeatherBlox Daily Observations layout. Learn more.

Left ArrowRight Arrow

Hourly Observations for May 27, 2020

Temp ( °F °C ) Dew Point ( °F °C ) Humidity (%) Winds ( mph kmh ) Pressure ( in mb ) Visibility ( mi km ) Precip ( " mm )
12:53 am 00:53 Clear 73 22.8 65 18.3 76 76 NNE 3 6 29.84 1010 10 16 0.00 0.00
1:53 am 01:53 Clear 72 22.2 64 17.8 76 76 Calm 29.83 1010 10 16 0.00 0.00
2:53 am 02:53 Clear 69 20.6 63 17.2 81 81 Calm 29.83 1010 10 16 0.00 0.00
3:53 am 03:53 Clear 68 20 62 16.7 81 81 Calm 29.83 1010 10 16 0.00 0.00
4:53 am 04:53 Clear 66 18.9 62 16.7 87 87 Calm 29.83 1010 10 16 0.00 0.00
5:53 am 05:53 Sunny 66 18.9 62 16.7 87 87 Calm 29.83 1010 10 16 0.00 0.00
6:53 am 06:53 Sunny 71 21.7 63 17.2 76 76 Calm 29.85 1011 10 16 0.00 0.00
7:53 am 07:53 Sunny 74 23.3 64 17.8 71 71 SE 3 6 29.85 1011 10 16 0.00 0.00
8:53 am 08:53 Sunny 83 28.3 60 15.6 46 46 NNW 5 7 29.85 1011 10 16 0.00 0.00
9:53 am 09:53 Sunny 87 30.6 58 14.4 37 37 NNE 8 13 29.84 1011 10 16 0.00 0.00
10:53 am 10:53 Sunny 89 31.7 59 15 36 36 VRB 5 7 29.83 1010 10 16 0.00 0.00
11:53 am 11:53 Sunny 92 33.3 59 15 33 33 VRB 5 7 29.83 1010 10 16 0.00 0.00
12:53 pm 12:53 Sunny 94 34.4 59 15 31 31 Calm 29.82 1010 10 16 0.00 0.00
1:53 pm 13:53 Sunny 95 35 59 15 30 30 Calm 29.81 1010 10 16 0.00 0.00
2:53 pm 14:53 Sunny 96 35.6 55 12.8 25 25 SE 8 13 29.80 1009 10 16 0.00 0.00
3:53 pm 15:53 Sunny 98 36.7 55 12.8 24 24 VRB 5 7 29.79 1009 10 16 0.00 0.00
4:53 pm 16:53 Sunny 98 36.7 56 13.3 24 24 W 5 7 29.77 1008 10 16 0.00 0.00
5:53 pm 17:53 Sunny 98 36.7 55 12.8 24 24 WNW 3 6 29.76 1008 10 16 0.00 0.00
6:53 pm 18:53 Sunny 98 36.7 53 11.7 22 22 W 3 6 29.76 1008 10 16 0.00 0.00
7:53 pm 19:53 Sunny 94 34.4 58 14.4 30 30 SE 3 6 29.77 1008 10 16 0.00 0.00
8:53 pm 20:53 Clear 86 30 67 19.4 53 53 NNE 3 6 29.77 1008 10 16 0.00 0.00
9:53 pm 21:53 Clear 81 27.2 65 18.3 58 58 Calm 29.79 1009 10 16 0.00 0.00
10:53 pm 22:53 Clear 80 26.7 64 17.8 58 58 N 3 6 29.80 1009 10 16 0.00 0.00
11:53 pm 23:53 Clear 77 25 62 16.7 60 60 NNW 5 7 29.81 1009 10 16 0.00 0.00

Powered by AerisWeather